Date,TemperatureHighF,TemperatureAvgF,TemperatureLowF,DewpointHighF,DewpointAvgF,DewpointLowF,HumidityHigh,HumidityAvg,HumidityLow,PressureMaxIn,PressureMinIn,WindSpeedMaxMPH,WindSpeedAvgMPH,GustSpeedMaxMPH,PrecipitationSumIn
2013-11-1,66,59,41,60,51,38,90,77,50,29.72,29.30,11,3,25,0.03
2013-11-2,61,50,40,45,41,37,88,72,46,29.74,29.53,9,1,16,0.00
2013-11-3,43,37,28,38,22,15,81,56,37,30.41,29.75,13,3,20,0.01
2013-11-4,41,29,19,20,17,14,86,65,36,30.71,30.41,4,0,12,0.22
2013-11-5,46,31,19,27,23,16,88,73,46,30.71,30.48,8,0,10,0.26
2013-11-6,55,41,26,43,34,23,89,78,61,30.47,29.94,5,0,13,0.08
2013-11-7,55,49,38,51,42,24,87,76,56,29.93,29.61,12,2,23,0.01
2013-11-8,43,37,32,27,24,21,71,59,48,29.99,29.75,11,2,21,0.00
2013-11-9,41,36,33,29,22,20,85,58,45,30.11,29.99,13,2,24,0.01
2013-11-10,41,35,32,37,32,28,89,87,83,30.02,29.68,3,0,7,0.00
2013-11-11,44,39,35,33,28,26,87,67,49,30.00,29.75,11,2,21,0.00
2013-11-12,41,31,26,33,18,14,75,60,54,30.10,29.80,11,2,23,0.02
2013-11-13,32,26,16,18,12,9,84,57,39,30.22,30.04,11,1,20,0.01
2013-11-14,48,36,25,29,24,17,85,63,47,30.05,29.95,6,1,10,0.17
2013-11-15,49,32,23,33,26,20,89,79,49,30.17,30.05,2,0,3,0.12
2013-11-16,56,36,26,31,26,23,87,71,32,30.33,30.16,3,0,7,0.18
2013-11-17,36,31,23,34,28,20,90,88,85,30.34,29.90,0,0,0,0.24
2013-11-18,59,47,36,49,37,29,91,71,45,29.89,29.45,8,1,18,0.14
2013-11-19,45,34,28,30,19,15,66,53,47,30.24,29.55,16,3,27,0.03
2013-11-20,39,28,19,17,13,8,84,57,27,30.62,30.25,9,1,16,0.02
2013-11-21,44,27,15,21,16,9,88,66,24,30.63,30.32,3,0,9,0.07
2013-11-22,34,31,26,31,27,20,89,83,72,30.32,29.75,1,0,3,0.02
2013-11-23,40,32,25,34,22,15,90,67,45,29.84,29.66,10,2,28,0.08
2013-11-24,24,19,15,15,5,1,68,54,47,30.09,29.71,20,5,35,0.00
2013-11-25,28,22,15,11,1,-4,55,41,27,30.27,30.10,11,2,25,0.00
2013-11-26,33,29,25,27,23,11,88,79,51,30.28,30.13,3,0,8,0.01
2013-11-27,39,34,30,36,32,27,91,89,78,30.11,29.18,10,0,13,0.77
2013-11-28,35,26,19,29,13,6,78,59,44,30.36,29.29,16,3,25,0.03
2013-11-29,26,18,8,9,7,5,86,63,41,30.74,30.36,9,1,21,0.00
2013-11-30,29,17,3,18,8,-1,87,71,43,30.81,30.41,4,0,10,0.00